Mercini Lady — A8DL4 — position and weather

sailwx.info

Track history (hours):
 
Tides and Currents Weather Stations Pressure Air Temp Water Temp Dewpoint Dewpoint Depression Visibility Wind Speed Wind Dir Waves Ship Positions

Mercini Lady

Last reported at 2015-Jul-07 14:04 UTC. Time now 2015-Jul-07 17:30 UTC.
Position N 50°09' W 002°06'.

Length 182 m; draft 12.2 m.

Type: Tanker. MMSI: 636012102.

Date/timePositionNaut miles runAvg speedWind from/ knotsBaromVisibWave heightAir tempDewpointWater temp
2015-Jul-07 14:04N 50°09' W 002°06'4 7.5
2015-Jul-07 13:32N 50°11' W 001°59'83 9.2
2015-Jul-07 04:33N 50°33' E 000°06'1110.7
2015-Jul-07 03:33N 50°35' E 000°22'10 9.6
2015-Jul-07 02:33N 50°38' E 000°36'9 9.0
2015-Jul-07 01:33N 50°44' E 000°47'9 8.8
2015-Jul-07 00:33N 50°49' E 000°59'1010.0
2015-Jul-06 23:33N 50°56' E 001°11'1211.9
2015-Jul-06 22:33N 51°03' E 001°25'1312.7
2015-Jul-06 21:33N 51°11' E 001°41'1111.1
2015-Jul-06 20:33N 51°20' E 001°51'10 9.8
2015-Jul-06 19:33N 51°29' E 001°59'9 8.9
2015-Jul-06 18:33N 51°35' E 002°08'9 8.6
2015-Jul-06 17:33N 51°42' E 002°18'8 8.1
2015-Jul-06 16:33N 51°48' E 002°27'8 8.2
2015-Jul-06 15:33N 51°53' E 002°36'9 9.3
2015-Jul-06 14:33N 51°60' E 002°47'10 9.8
2015-Jul-06 13:33N 52°03' E 003°02'1010.5
2015-Jul-06 12:33N 52°03' E 003°19'1110.7
2015-Jul-06 11:32N 52°03' E 003°37'10 9.8
2015-Jul-06 10:33N 52°02' E 003°53'8 7.9
2015-Jul-06 09:33N 51°59' E 004°04'2 2.2
2015-Jul-06 08:33N 51°57' E 004°05'0 0.0
2015-Jul-06 07:33N 51°57' E 004°05'0 0.0
2015-Jul-06 06:33N 51°57' E 004°05'0 0.0
2015-Jul-06 05:33N 51°57' E 004°05'0 0.0
2015-Jul-06 04:33N 51°57' E 004°05'0 0.0
2015-Jul-05 12:13N 51°57' E 004°05'0 0.1
2015-Jul-05 11:25N 51°57' E 004°05'0 0.0
2015-Jul-05 10:32N 51°57' E 004°05'0 0.0
2015-Jul-04 17:19N 51°57' E 004°05'0 0.0
2015-Jul-04 16:31N 51°57' E 004°05'0 0.1
2015-Jul-04 15:32N 51°57' E 004°05'  
2015-Jul-02 04:31N 51°57' E 004°05'0 0.0
2015-Jul-02 03:29N 51°57' E 004°05'0 0.0
2015-Jul-02 02:32N 51°57' E 004°05'0 0.0
2015-Jul-02 01:33N 51°57' E 004°05'0 0.0
2015-Jul-02 00:31N 51°57' E 004°05'0 0.5
2015-Jul-01 23:33N 51°57' E 004°05'6 5.5
2015-Jul-01 22:33N 51°60' E 003°57'8 8.4
2015-Jul-01 21:33N 51°58' E 003°44'6 5.4
2015-Jul-01 20:29N 51°56' E 003°35'0 0.0
2015-Jul-01 18:25N 51°56' E 003°35'0 0.0
2015-Jul-01 17:25N 51°56' E 003°35'0 0.0
2015-Jul-01 12:23N 51°56' E 003°36'0 0.1
2015-Jul-01 11:20N 51°56' E 003°35'0 0.1
2015-Jul-01 10:30N 51°56' E 003°35'0 0.0
2015-Jul-01 09:04N 51°56' E 003°35'0 0.0
2015-Jul-01 08:31N 51°56' E 003°35'0 0.0
2015-Jul-01 07:32N 51°56' E 003°35'0 0.0
2015-Jul-01 06:33N 51°56' E 003°35'0 0.0
2015-Jul-01 05:33N 51°56' E 003°35'0 0.1
2015-Jul-01 04:31N 51°56' E 003°35'0 0.1
2015-Jul-01 03:31N 51°56' E 003°36'0 0.0
2015-Jul-01 02:26N 51°56' E 003°36'0 0.0
2015-Jul-01 01:30N 51°56' E 003°36'0 0.0
2015-Jun-30 23:19N 51°56' E 003°36'0 0.2
2015-Jun-30 22:32N 51°56' E 003°35'0 0.1
2015-Jun-30 21:32N 51°56' E 003°35'0 0.0
2015-Jun-30 20:24N 51°56' E 003°35'0 0.0
2015-Jun-30 19:28N 51°56' E 003°35'0 0.0
2015-Jun-30 18:28N 51°56' E 003°35'0 0.0
2015-Jun-30 17:26N 51°56' E 003°35'0 0.0
2015-Jun-30 16:33N 51°56' E 003°35'0 0.2
2015-Jun-30 15:30N 51°56' E 003°36'0 0.0
2015-Jun-30 14:28N 51°56' E 003°36'0 0.0
2015-Jun-30 13:32N 51°56' E 003°36'0 0.0
2015-Jun-30 11:33N 51°56' E 003°36'0 0.2
2015-Jun-30 10:31N 51°56' E 003°35'0 0.0
2015-Jun-30 08:17N 51°56' E 003°35'0 0.0
2015-Jun-30 07:24N 51°56' E 003°35'0 0.0
2015-Jun-30 06:33N 51°56' E 003°35'0 0.0
2015-Jun-30 05:31N 51°56' E 003°35'0 0.0
2015-Jun-30 04:32N 51°56' E 003°35'0 0.1
2015-Jun-30 03:32N 51°56' E 003°36'0 0.1
2015-Jun-30 02:33N 51°56' E 003°36'0 0.0
2015-Jun-30 01:31N 51°56' E 003°36'0 0.0
2015-Jun-30 00:31N 51°56' E 003°36'0 0.0
2015-Jun-29 23:26N 51°56' E 003°36'0 0.0
2015-Jun-29 22:30N 51°56' E 003°36'0 0.2
2015-Jun-29 21:33N 51°56' E 003°36'0 0.0
2015-Jun-29 20:31N 51°56' E 003°35'0 0.0
2015-Jun-29 19:31N 51°56' E 003°35'0 0.0
2015-Jun-29 18:32N 51°56' E 003°35'0 0.0
2015-Jun-29 17:33N 51°56' E 003°35'0 0.0
2015-Jun-29 16:33N 51°56' E 003°35'0 0.2
2015-Jun-29 15:31N 51°56' E 003°36'0 0.0
2015-Jun-29 14:32N 51°56' E 003°36'0 0.0
2015-Jun-29 13:32N 51°56' E 003°36'0 0.0
2015-Jun-29 12:33N 51°56' E 003°36'0 0.0
2015-Jun-29 11:31N 51°56' E 003°36'0 0.0
2015-Jun-29 10:29N 51°56' E 003°36'0 0.0
2015-Jun-29 09:29N 51°56' E 003°36'0 0.1
2015-Jun-29 08:27N 51°56' E 003°36'2 2.5
2015-Jun-29 07:33N 51°56' E 003°32'9 8.9
2015-Jun-29 06:29N 51°53' E 003°17'1410.1
2015-Jun-29 05:07N 51°49' E 002°56'611.2
2015-Jun-29 04:33N 51°47' E 002°46'1311.1
2015-Jun-29 03:23N 51°39' E 002°30'1012.0
2015-Jun-29 02:33N 51°31' E 002°20'1211.9
2015-Jun-29 01:33N 51°22' E 002°08'1212.0
2015-Jun-29 00:33N 51°12' E 001°58'1313.4
2015-Jun-28 23:33N 51°03' E 001°41'5813.3
2015-Jun-28 19:13N 50°26' E 000°32'3814.1
2015-Jun-28 16:32N 50°16' W 000°25'2713.7
2015-Jun-28 14:33N 50°09' W 001°06'1312.5
2015-Jun-28 13:33N 50°06' W 001°25'2211.1
2015-Jun-28 11:33N 50°00' W 001°59'12 9.6
2015-Jun-28 10:20N 49°55' W 002°15'3010.8
2015-Jun-28 07:33N 49°48' W 003°00'1311.7
2015-Jun-28 06:26N 49°46' W 003°20'1212.0
2015-Jun-28 05:25N 49°45' W 003°39'  
Track history (hours):
 
Tides and Currents Weather Stations Pressure Air Temp Water Temp Dewpoint Dewpoint Depression Visibility Wind Speed Wind Dir Waves Ship Positions

Mercini Lady

Last reported at 2015-Jul-07 14:04 UTC. Time now 2015-Jul-07 17:30 UTC.
Position N 50°09' W 002°06'.

Length 182 m; draft 12.2 m.

Type: Tanker. MMSI: 636012102.

Date/timePositionNaut miles runAvg speedWind from/ knotsBaromVisibWave heightAir tempDewpointWater temp
2015-Jul-07 14:04N 50°09' W 002°06'4 7.5
2015-Jul-07 13:32N 50°11' W 001°59'83 9.2
2015-Jul-07 04:33N 50°33' E 000°06'1110.7
2015-Jul-07 03:33N 50°35' E 000°22'10 9.6
2015-Jul-07 02:33N 50°38' E 000°36'9 9.0
2015-Jul-07 01:33N 50°44' E 000°47'9 8.8
2015-Jul-07 00:33N 50°49' E 000°59'1010.0
2015-Jul-06 23:33N 50°56' E 001°11'1211.9
2015-Jul-06 22:33N 51°03' E 001°25'1312.7
2015-Jul-06 21:33N 51°11' E 001°41'1111.1
2015-Jul-06 20:33N 51°20' E 001°51'10 9.8
2015-Jul-06 19:33N 51°29' E 001°59'9 8.9
2015-Jul-06 18:33N 51°35' E 002°08'9 8.6
2015-Jul-06 17:33N 51°42' E 002°18'8 8.1
2015-Jul-06 16:33N 51°48' E 002°27'8 8.2
2015-Jul-06 15:33N 51°53' E 002°36'9 9.3
2015-Jul-06 14:33N 51°60' E 002°47'10 9.8
2015-Jul-06 13:33N 52°03' E 003°02'1010.5
2015-Jul-06 12:33N 52°03' E 003°19'1110.7
2015-Jul-06 11:32N 52°03' E 003°37'10 9.8
2015-Jul-06 10:33N 52°02' E 003°53'8 7.9
2015-Jul-06 09:33N 51°59' E 004°04'2 2.2
2015-Jul-06 08:33N 51°57' E 004°05'0 0.0
2015-Jul-06 07:33N 51°57' E 004°05'0 0.0
2015-Jul-06 06:33N 51°57' E 004°05'0 0.0
2015-Jul-06 05:33N 51°57' E 004°05'0 0.0
2015-Jul-06 04:33N 51°57' E 004°05'0 0.0
2015-Jul-05 12:13N 51°57' E 004°05'0 0.1
2015-Jul-05 11:25N 51°57' E 004°05'0 0.0
2015-Jul-05 10:32N 51°57' E 004°05'0 0.0
2015-Jul-04 17:19N 51°57' E 004°05'0 0.0
2015-Jul-04 16:31N 51°57' E 004°05'0 0.1
2015-Jul-04 15:32N 51°57' E 004°05'  
2015-Jul-02 04:31N 51°57' E 004°05'0 0.0
2015-Jul-02 03:29N 51°57' E 004°05'0 0.0
2015-Jul-02 02:32N 51°57' E 004°05'0 0.0
2015-Jul-02 01:33N 51°57' E 004°05'0 0.0
2015-Jul-02 00:31N 51°57' E 004°05'0 0.5
2015-Jul-01 23:33N 51°57' E 004°05'6 5.5
2015-Jul-01 22:33N 51°60' E 003°57'8 8.4
2015-Jul-01 21:33N 51°58' E 003°44'6 5.4
2015-Jul-01 20:29N 51°56' E 003°35'0 0.0
2015-Jul-01 18:25N 51°56' E 003°35'0 0.0
2015-Jul-01 17:25N 51°56' E 003°35'0 0.0
2015-Jul-01 12:23N 51°56' E 003°36'0 0.1
2015-Jul-01 11:20N 51°56' E 003°35'0 0.1
2015-Jul-01 10:30N 51°56' E 003°35'0 0.0
2015-Jul-01 09:04N 51°56' E 003°35'0 0.0
2015-Jul-01 08:31N 51°56' E 003°35'0 0.0
2015-Jul-01 07:32N 51°56' E 003°35'0 0.0
2015-Jul-01 06:33N 51°56' E 003°35'0 0.0
2015-Jul-01 05:33N 51°56' E 003°35'0 0.1
2015-Jul-01 04:31N 51°56' E 003°35'0 0.1
2015-Jul-01 03:31N 51°56' E 003°36'0 0.0
2015-Jul-01 02:26N 51°56' E 003°36'0 0.0
2015-Jul-01 01:30N 51°56' E 003°36'0 0.0
2015-Jun-30 23:19N 51°56' E 003°36'0 0.2
2015-Jun-30 22:32N 51°56' E 003°35'0 0.1
2015-Jun-30 21:32N 51°56' E 003°35'0 0.0
2015-Jun-30 20:24N 51°56' E 003°35'0 0.0
2015-Jun-30 19:28N 51°56' E 003°35'0 0.0
2015-Jun-30 18:28N 51°56' E 003°35'0 0.0
2015-Jun-30 17:26N 51°56' E 003°35'0 0.0
2015-Jun-30 16:33N 51°56' E 003°35'0 0.2
2015-Jun-30 15:30N 51°56' E 003°36'0 0.0
2015-Jun-30 14:28N 51°56' E 003°36'0 0.0
2015-Jun-30 13:32N 51°56' E 003°36'0 0.0
2015-Jun-30 11:33N 51°56' E 003°36'0 0.2
2015-Jun-30 10:31N 51°56' E 003°35'0 0.0
2015-Jun-30 08:17N 51°56' E 003°35'0 0.0
2015-Jun-30 07:24N 51°56' E 003°35'0 0.0
2015-Jun-30 06:33N 51°56' E 003°35'0 0.0
2015-Jun-30 05:31N 51°56' E 003°35'0 0.0
2015-Jun-30 04:32N 51°56' E 003°35'0 0.1
2015-Jun-30 03:32N 51°56' E 003°36'0 0.1
2015-Jun-30 02:33N 51°56' E 003°36'0 0.0
2015-Jun-30 01:31N 51°56' E 003°36'0 0.0
2015-Jun-30 00:31N 51°56' E 003°36'0 0.0
2015-Jun-29 23:26N 51°56' E 003°36'0 0.0
2015-Jun-29 22:30N 51°56' E 003°36'0 0.2
2015-Jun-29 21:33N 51°56' E 003°36'0 0.0
2015-Jun-29 20:31N 51°56' E 003°35'0 0.0
2015-Jun-29 19:31N 51°56' E 003°35'0 0.0
2015-Jun-29 18:32N 51°56' E 003°35'0 0.0
2015-Jun-29 17:33N 51°56' E 003°35'0 0.0
2015-Jun-29 16:33N 51°56' E 003°35'0 0.2
2015-Jun-29 15:31N 51°56' E 003°36'0 0.0
2015-Jun-29 14:32N 51°56' E 003°36'0 0.0
2015-Jun-29 13:32N 51°56' E 003°36'0 0.0
2015-Jun-29 12:33N 51°56' E 003°36'0 0.0
2015-Jun-29 11:31N 51°56' E 003°36'0 0.0
2015-Jun-29 10:29N 51°56' E 003°36'0 0.0
2015-Jun-29 09:29N 51°56' E 003°36'0 0.1
2015-Jun-29 08:27N 51°56' E 003°36'2 2.5
2015-Jun-29 07:33N 51°56' E 003°32'9 8.9
2015-Jun-29 06:29N 51°53' E 003°17'1410.1
2015-Jun-29 05:07N 51°49' E 002°56'611.2
2015-Jun-29 04:33N 51°47' E 002°46'1311.1
2015-Jun-29 03:23N 51°39' E 002°30'1012.0
2015-Jun-29 02:33N 51°31' E 002°20'1211.9
2015-Jun-29 01:33N 51°22' E 002°08'1212.0
2015-Jun-29 00:33N 51°12' E 001°58'1313.4
2015-Jun-28 23:33N 51°03' E 001°41'5813.3
2015-Jun-28 19:13N 50°26' E 000°32'3814.1
2015-Jun-28 16:32N 50°16' W 000°25'2713.7
2015-Jun-28 14:33N 50°09' W 001°06'1312.5
2015-Jun-28 13:33N 50°06' W 001°25'2211.1
2015-Jun-28 11:33N 50°00' W 001°59'12 9.6
2015-Jun-28 10:20N 49°55' W 002°15'3010.8
2015-Jun-28 07:33N 49°48' W 003°00'1311.7
2015-Jun-28 06:26N 49°46' W 003°20'1212.0
2015-Jun-28 05:25N 49°45' W 003°39'  

Dump ship's entire track history